EW4120 Weather Reports


Display with metric or nautical units.
time (UTC)temp
F
wind
direction
speed
MPH
gust
MPH
rain 1hr
in
rain 24hr
in
rain mn
in
humidity
%
barometer
mb
20260903033537 75 0.0 0.0 0.01 0.13 0.13 94 1019.3
20260903032537 75 0.0 0.0 0.01 0.13 0.13 94 1019.5
20260903031517 75 0.0 0.0 0.01 0.13 0.13 94 1019.4
20260903030517 75 0.0 0.0 0.01 0.13 0.13 93 1019.5
20260903024517 76 0.0 0.0 0.00 0.13 0.12 92 1019.6
20260903023557 76 0.0 0.0 0.00 0.13 0.12 92 1019.6
20260903022617 76 0.0 0.0 0.00 0.13 0.12 91 1019.5
20260903021517 77 0.0 0.0 0.00 0.13 0.12 91 1019.7
20260903020617 77 0.0 0.0 0.00 0.13 0.12 90 1019.6
20260903015517 77 0.0 0.0 0.01 0.13 0.12 90 1019.7
20260903014637 77 0.0 0.0 0.01 0.13 0.12 89 1019.7
20260903013537 78 0.0 0.0 0.02 0.13 0.12 88 1019.8
20260903012537 78 0.0 0.0 0.02 0.13 0.12 87 1019.5
20260903011517 79 0.0 0.0 0.02 0.13 0.12 86 1019.5
20260903010557 79 0.0 0.0 0.03 0.13 0.12 86 1019.4
20260903005537 80 0.0 0.0 0.02 0.12 0.11 85 1019.3
20260903004517 80 0.0 0.0 0.02 0.12 0.11 83 1019.2
20260903003517 81 0.0 0.0 0.01 0.11 0.10 82 1019.1
20260903002517 82 0.0 0.0 0.02 0.11 0.10 81 1019.0
20260903001517 82 0.0 0.0 0.03 0.11 0.10 80 1019.0
20260903000517 83 0.0 0.0 0.03 0.10 0.09 79 1019.0
20260902235557 84 0.0 0.0 0.03 0.10 0.09 77 1018.9
20260902234537 85 0.0 0.0 0.04 0.10 0.09 77 1018.9
20260902233517 86 0.0 0.0 0.04 0.11 0.09 75 1018.9
20260902232517 87 0.0 0.0 0.03 0.10 0.08 73 1018.8
20260902231557 89 0.0 0.0 0.02 0.09 0.07 70 1018.8
20260902230516 92 0.0 0.0 0.01 0.08 0.06 68 1019.0
20260902225537 94 0.0 0.0 0.01 0.09 0.06 63 1018.9
20260902224516 95 0.0 1.0 0.00 0.09 0.05 59 1018.9
20260902223557 96 0.0 0.0 0.00 0.09 0.05 57 1018.8
20260902222517 97 0.0 1.0 0.00 0.10 0.05 54 1018.9
20260902221516 97 0.0 1.0 0.00 0.10 0.05 54 1018.9
20260902220657 97 0.0 1.0 0.00 0.10 0.05 53 1018.9
20260902215516 97 0.0 3.0 0.00 0.11 0.05 56 1019.0
20260902214516 98 0.0 3.0 0.00 0.11 0.05 52 1019.0
20260902213516 99 0.0 2.0 0.00 0.11 0.05 53 1019.1
20260902212537 99 0.0 2.0 0.00 0.11 0.05 48 1019.1
20260902211637 98 0.0 2.0 0.00 0.11 0.05 52 1019.1
20260902210516 98 23 1.0 2.0 0.00 0.11 0.05 50 1019.1
20260902205516 98 23 1.0 3.0 0.00 0.11 0.05 52 1019.2
20260902204516 98 0.0 2.0 0.00 0.11 0.05 50 1019.2
20260902203516 99 0.0 1.0 0.00 0.11 0.05 51 1019.2
20260902202516 98 248 1.0 3.0 0.01 0.11 0.05 51 1019.3
20260902201516 98 0.0 3.0 0.01 0.11 0.05 52 1019.3
20260902200537 97 0.0 3.0 0.01 0.11 0.05 51 1019.3
20260902195636 97 23 2.0 6.0 0.01 0.11 0.05 53 1019.5
20260902194536 97 0.0 1.0 0.02 0.11 0.05 54 1019.6
20260902193516 97 293 1.0 3.0 0.02 0.11 0.05 53 1019.7
20260902192516 96 248 1.0 3.0 0.01 0.10 0.04 56 1019.8
20260902191516 94 0.0 3.0 0.01 0.10 0.04 59 1019.8
20260902190516 95 45 1.0 4.0 0.01 0.10 0.04 55 1019.9
20260902185516 96 315 1.0 3.0 0.01 0.10 0.04 56 1020.1
20260902184516 96 0.0 2.0 0.00 0.09 0.03 58 1020.2
20260902183516 95 0.0 3.0 0.00 0.09 0.03 57 1020.2
20260902182516 95 315 1.0 6.0 0.00 0.09 0.03 60 1020.4
20260902181516 94 225 1.0 3.0 0.00 0.09 0.03 60 1020.3
20260902180516 94 45 1.0 4.0 0.00 0.09 0.03 58 1020.3
20260902175516 93 270 1.0 4.0 0.00 0.09 0.03 59 1020.3
20260902174536 92 0.0 0.0 0.00 0.09 0.03 63 1020.5
20260902173516 93 23 2.0 5.0 0.00 0.09 0.03 57 1020.6
20260902172516 93 248 1.0 3.0 0.00 0.09 0.03 58 1020.7
20260902171616 93 248 1.0 6.0 0.00 0.09 0.03 58 1020.8
20260902170516 92 293 1.0 4.0 0.00 0.09 0.03 62 1020.9
20260902165516 92 0.0 1.0 0.00 0.09 0.03 62 1021.1
20260902164536 92 0.0 1.0 0.00 0.09 0.03 62 1021.2
20260902163636 91 23 1.0 3.0 0.01 0.09 0.03 61 1021.2
20260902162516 91 45 1.0 2.0 0.01 0.09 0.03 63 1021.3
20260902161536 90 0.0 2.0 0.01 0.09 0.03 64 1021.3
20260902160516 91 0.0 2.0 0.01 0.09 0.03 62 1021.4
20260902154516 89 0.0 1.0 0.01 0.09 0.03 69 1021.4
20260902153516 89 0.0 1.0 0.00 0.08 0.02 70 1021.5
20260902152556 88 0.0 1.0 0.00 0.08 0.02 66 1021.4
20260902151556 88 0.0 1.0 0.00 0.08 0.02 71 1021.4
20260902150516 87 0.0 4.0 0.00 0.08 0.02 72 1021.3
20260902145616 87 0.0 2.0 0.00 0.08 0.02 72 1021.3
20260902144516 87 0.0 2.0 0.00 0.08 0.02 73 1021.3
20260902143516 86 0.0 2.0 0.00 0.08 0.02 73 1021.2
20260902142516 84 0.0 2.0 0.00 0.09 0.02 80 1021.1
20260902141616 83 0.0 1.0 0.00 0.09 0.02 83 1021.0
20260902140616 81 0.0 1.0 0.01 0.09 0.02 88 1021.0
20260902135516 80 0.0 0.0 0.01 0.09 0.02 92 1021.0
20260902134516 79 0.0 0.0 0.01 0.09 0.02 96 1021.0
20260902133516 78 0.0 0.0 0.01 0.09 0.02 99 1021.0
20260902132556 77 0.0 0.0 0.01 0.09 0.02 100 1020.9
20260902131515 76 0.0 0.0 0.01 0.09 0.02 100 1021.0
20260902130536 75 0.0 0.0 0.00 0.08 0.01 100 1021.1
20260902125556 74 0.0 0.0 0.00 0.08 0.01 100 1021.0
20260902124515 73 0.0 0.0 0.00 0.08 0.01 100 1021.0
20260902123535 72 0.0 0.0 0.00 0.08 0.01 100 1020.9
20260902122515 71 0.0 0.0 0.00 0.08 0.01 99 1021.1
20260902121556 71 0.0 0.0 0.00 0.08 0.01 99 1021.1
20260902120657 70 0.0 0.0 0.00 0.08 0.01 99 1021.0
20260902115515 70 0.0 0.0 0.00 0.08 0.01 99 1021.0
20260902114615 70 0.0 0.0 0.00 0.08 0.01 99 1020.8
20260902113535 69 0.0 0.0 0.00 0.08 0.01 99 1020.7
20260902112636 69 0.0 0.0 0.00 0.08 0.01 99 1020.8
20260902111515 69 0.0 0.0 0.00 0.08 0.01 99 1020.8
20260902110616 69 0.0 0.0 0.00 0.08 0.01 99 1020.7
20260902105555 69 0.0 0.0 0.00 0.08 0.01 99 1020.8
20260902104535 69 0.0 0.0 0.00 0.08 0.01 98 1020.7
20260902103515 69 0.0 0.0 0.00 0.08 0.01 98 1020.5
20260902102515 69 0.0 0.0 0.00 0.08 0.01 98 1020.6
20260902101515 69 0.0 0.0 0.00 0.08 0.01 98 1020.6
20260902100636 69 0.0 0.0 0.00 0.08 0.01 98 1020.5
20260902095515 70 0.0 0.0 0.00 0.08 0.01 98 1020.5
20260902094515 70 0.0 0.0 0.00 0.08 0.01 98 1020.5
20260902093515 70 0.0 0.0 0.00 0.08 0.01 98 1020.6
20260902092515 70 0.0 0.0 0.00 0.08 0.01 98 1020.5
20260902091515 70 0.0 0.0 0.00 0.08 0.01 98 1020.5
20260902090517 70 0.0 0.0 0.00 0.08 0.01 98 1020.5
20260902085535 70 0.0 0.0 0.00 0.08 0.01 98 1020.5
20260902084537 70 0.0 0.0 0.00 0.08 0.01 98 1020.3
20260902083517 70 0.0 0.0 0.00 0.08 0.01 98 1020.2
20260902082537 70 0.0 0.0 0.00 0.08 0.01 98 1020.1
20260902080637 70 0.0 0.0 0.00 0.08 0.01 98 1020.1
20260902075557 71 0.0 0.0 0.00 0.08 0.01 98 1020.1
20260902074517 71 0.0 0.0 0.00 0.08 0.01 98 1020.0
20260902073517 71 0.0 0.0 0.00 0.08 0.01 98 1020.0
20260902072517 71 0.0 0.0 0.01 0.08 0.01 98 1020.0
20260902071638 71 0.0 0.0 0.01 0.08 0.01 98 1020.0
20260902070537 71 0.0 0.0 0.01 0.08 0.01 98 1020.1
20260902065517 71 0.0 0.0 0.01 0.08 0.01 97 1020.1
20260902064517 71 0.0 0.0 0.01 0.08 0.01 97 1020.1
20260902063537 71 0.0 0.0 0.01 0.08 0.01 97 1020.1
20260902061517 71 0.0 0.0 0.00 0.07 0.00 97 1020.1
20260902060517 71 0.0 0.0 0.00 0.07 0.00 97 1020.1
20260902055517 72 0.0 0.0 0.00 0.07 0.00 97 1020.1
20260902054617 72 0.0 0.0 0.00 0.07 0.00 97 1020.1
20260902053557 72 0.0 0.0 0.00 0.07 0.00 97 1020.0
20260902052537 72 0.0 0.0 0.00 0.07 0.00 97 1020.0
20260902051557 72 0.0 0.0 0.00 0.07 0.00 97 1019.9
20260902050537 72 0.0 0.0 0.00 0.07 0.00 96 1019.9
20260902045537 72 0.0 0.0 0.00 0.07 0.00 96 1019.8
20260902044517 72 0.0 0.0 0.00 0.07 0.00 96 1019.7
20260902043557 73 0.0 0.0 0.00 0.07 0.00 96 1019.8
20260902042557 73 0.0 0.0 0.00 0.07 0.00 96 1019.7
20260902041537 73 0.0 0.0 0.00 0.07 0.00 96 1019.6
20260902040537 73 0.0 0.0 0.00 0.07 0.00 96 1019.7
20260902035617 73 0.0 0.0 0.01 0.07 0.07 95 1019.8
20260902034517 73 0.0 0.0 0.01 0.07 0.07 95 1019.8